{"data":{"norad_id":68825,"intl_designator":"2026-089Z","name":"STARLINK-37015","alt_names":[],"object_type":"PAYLOAD","status":"ACTIVE","operator":null,"country":"US","launch_date":"2026-04-23","launch_site_code":"AFWTR","launch_vehicle":null,"mission":null,"orbit_class":"UNKNOWN","rcs_meters":null,"size_class":null,"mass_kg":null,"dimensions":null,"purposes":["comms"],"wikipedia_slug":null,"has_3d_model":false,"image_url":null,"decayed_at":null,"tle_current":{"epoch":"2026-05-25T02:26:25.081152Z","epoch_age_seconds":73221,"freshness":"FRESH","line1":"1 68825U 26089Z   26145.10167918  .00181862  00000+0  11945-2 0  9992","line2":"2 68825  97.2845 351.7772 0003613  86.2857 273.8821 15.75181680  5061","mean_motion":15.7518168,"eccentricity":0.0003613,"inclination_deg":97.2845,"raan_deg":351.7772,"arg_perigee_deg":86.2857,"mean_anomaly_deg":273.8821,"bstar":0.0011945,"rev_number":506,"period_min":91.418026141594,"perigee_km":341.68549018409,"apogee_km":346.54298892979,"semimajor_km":6722.2512395569,"source":"CELESTRAK","updated_at":"2026-05-25T13:38:22.044954Z"}}}